SBIRS GEO-4 (USA 273)

Last updated on Mon Nov 03 2025 00:02:58 GMT+0000 (Coordinated Universal Time)

1 41937U 17004A 25306.32808755 .00000136 00000+0 00000+0 0 9998 2 41937 1.8392 35.0013 0002095 189.6100 316.2838 1.00271695 32324
UTC large
Height (km)
Speed (km/s)
/
Latitude / Longitude
Inclination (degrees)
Orbital Period (minutes)
Azimuth
Elevation
Range (km)
Doppler Factor

Next 0 passes for location: London (51.5072 / 0.1276)

Sorry there are no passes over London.